Total_Precipitation_Accumulation
2.92 3.01 2.82 2.79 2.88 2.91 3.11 3.41 3.52 3.28 3.07 2.82 2.37 2.11 2.16 2.41 2.72 2.42 2.25 2.18 2.00 1.89 1.78 1.73 1.74 1.79 1.87 2.00 2.19 2.41 2.55 2.63 2.71 2.68 2.75 2.95 3.10 3.27
2.69 2.74 2.71 2.66 2.80 2.74 2.79 3.04 3.30 3.38 3.15 2.81 2.52 2.19 2.28 2.21 2.46 2.34 2.35 2.30 2.02 1.80 1.62 1.54 1.54 1.60 1.69 1.76 1.82 1.95 2.00 2.03 2.13 2.21 2.24 2.28 2.34 2.49
2.29 2.37 2.41 2.59 2.72 2.67 2.72 2.79 3.07 3.39 3.31 3.03 2.73 2.55 2.49 2.46 2.30 2.23 2.14 2.03 1.85 1.72 1.50 1.40 1.40 1.42 1.48 1.54 1.64 1.77 1.84 1.90 1.93 1.97 2.04 2.09 2.15 2.22
2.26 2.41 2.31 2.48 2.63 2.55 2.67 2.69 2.87 3.25 3.40 3.47 3.37 3.06 2.81 2.66 2.61 2.39 1.96 1.80 1.86 1.82 1.63 1.46 1.37 1.34 1.34 1.37 1.46 1.61 1.73 1.80 1.83 1.83 1.86 1.90 1.99 2.12
2.30 2.34 2.22 2.36 2.42 2.44 2.50 2.57 2.76 2.97 3.27 3.22 3.24 3.17 3.00 2.76 2.87 2.56 2.23 2.17 1.77 1.73 1.68 1.51 1.41 1.35 1.32 1.33 1.38 1.44 1.54 1.65 1.67 1.77 1.87 1.93 1.96 2.00
2.20 2.12 2.01 2.01 2.10 2.29 2.30 2.43 2.65 2.84 3.04 2.99 3.05 3.15 3.23 3.24 3.26 3.01 2.81 2.57 2.18 1.75 1.77 1.60 1.53 1.42 1.29 1.23 1.25 1.32 1.45 1.58 1.60 1.65 1.76 1.83 1.90 1.97
2.02 1.85 1.66 1.72 1.83 1.91 1.84 2.19 2.52 2.64 2.73 2.81 2.90 3.09 3.24 3.49 3.29 3.15 3.03 2.97 2.66 2.21 2.15 1.80 1.67 1.47 1.31 1.27 1.27 1.27 1.34 1.49 1.56 1.63 1.71 1.77 1.85 1.95
1.89 1.86 1.71 1.61 1.56 1.60 1.57 1.74 2.06 2.22 2.42 2.72 2.85 3.05 3.15 3.17 3.33 3.32 3.27 3.12 2.83 2.52 2.51 2.42 2.26 2.12 1.82 1.49 1.41 1.29 1.22 1.33 1.49 1.58 1.67 1.77 1.85 1.92
1.82 1.85 1.60 1.48 1.55 1.43 1.51 1.57 1.61 1.71 1.89 2.27 2.54 2.63 2.69 2.74 3.05 3.16 3.16 3.04 2.95 2.80 2.86 2.84 2.71 2.47 2.03 1.80 1.72 1.48 1.36 1.32 1.39 1.46 1.50 1.61 1.74 1.83
1.54 1.58 1.62 1.60 1.51 1.55 1.53 1.52 1.43 1.46 1.57 1.60 1.78 2.00 2.27 2.52 2.73 2.93 3.21 3.16 3.09 3.01 2.97 3.06 2.91 2.76 2.36 2.07 1.94 1.68 1.57 1.50 1.51 1.51 1.50 1.49 1.53 1.62
1.56 1.58 1.66 1.71 1.72 1.58 1.53 1.56 1.56 1.57 1.52 1.53 1.48 1.58 1.75 1.89 2.07 2.36 2.72 3.06 3.26 3.24 3.03 3.12 3.07 3.08 3.00 2.59 2.18 1.98 1.72 1.59 1.55 1.53 1.50 1.48 1.49 1.55
1.85 1.84 1.75 1.62 1.62 1.51 1.48 1.57 1.55 1.55 1.47 1.43 1.38 1.36 1.36 1.50 1.69 1.91 2.22 2.59 2.88 3.04 2.97 3.09 3.27 3.60 3.75 3.22 2.60 2.19 1.96 1.87 1.72 1.57 1.53 1.55 1.62 1.50
1.82 1.77 1.65 1.49 1.35 1.31 1.28 1.38 1.47 1.41 1.41 1.45 1.49 1.48 1.50 1.54 1.61 1.72 2.02 2.29 2.43 2.37 2.37 2.77 3.01 3.29 3.63 3.53 3.25 2.86 2.53 2.26 2.03 1.85 1.78 1.79 1.82 1.72
1.88 1.85 1.70 1.51 1.32 1.23 1.09 1.14 1.20 1.14 1.21 1.39 1.47 1.49 1.52 1.54 1.63 1.75 1.95 2.16 2.35 2.34 2.35 2.58 2.79 3.00 3.08 3.03 3.03 3.06 3.02 2.83 2.55 2.31 2.09 2.12 2.05 2.06
1.71 1.88 1.76 1.46 1.23 1.13 1.09 1.01 0.91 0.91 1.06 1.19 1.27 1.37 1.43 1.52 1.65 1.84 2.07 2.23 2.30 2.27 2.19 2.34 2.59 2.84 2.96 2.84 2.70 2.66 2.72 2.71 2.62 2.57 2.51 2.39 2.25 2.17
1.53 1.55 1.50 1.35 1.17 1.18 1.20 1.06 0.94 1.01 1.07 1.08 1.16 1.29 1.37 1.47 1.62 1.74 1.93 2.15 2.29 2.18 2.15 2.24 2.44 2.70 2.73 2.68 2.59 2.47 2.48 2.55 2.60 2.69 2.71 2.61 2.48 2.38
1.49 1.50 1.46 1.45 1.32 1.27 1.32 1.31 1.27 1.31 1.27 1.21 1.24 1.28 1.34 1.39 1.47 1.61 1.78 1.90 2.01 2.00 1.99 2.07 2.21 2.42 2.46 2.47 2.47 2.31 2.27 2.25 2.37 2.66 2.89 2.82 2.55 2.40
1.39 1.47 1.57 1.56 1.52 1.51 1.50 1.48 1.47 1.44 1.43 1.46 1.44 1.39 1.39 1.41 1.39 1.45 1.59 1.68 1.72 1.77 1.83 1.86 1.98 2.17 2.26 2.21 2.01 1.94 1.93 1.95 2.00 2.24 2.51 2.67 2.52 2.33
1.36 1.47 1.63 1.66 1.66 1.66 1.60 1.55 1.59 1.54 1.55 1.56 1.53 1.51 1.54 1.55 1.52 1.52 1.62 1.73 1.73 1.68 1.70 1.83 1.90 2.00 2.00 1.91 1.75 1.53 1.67 1.81 1.89 1.92 1.98 2.09 2.12 1.99
1.43 1.62 1.79 1.79 1.79 1.76 1.67 1.60 1.61 1.59 1.58 1.57 1.57 1.54 1.57 1.64 1.65 1.62 1.62 1.69 1.69 1.65 1.67 1.69 1.73 1.74 1.79 1.82 1.74 1.56 1.39 1.58 1.72 1.76 1.74 1.76 1.71 1.74
1.61 1.71 1.76 1.78 1.78 1.72 1.63 1.58 1.61 1.59 1.56 1.59 1.59 1.59 1.59 1.68 1.67 1.63 1.61 1.68 1.60 1.52 1.52 1.54 1.55 1.58 1.68 1.84 1.78 1.58 1.44 1.40 1.50 1.57 1.63 1.75 1.71 1.64
1.57 1.58 1.57 1.57 1.60 1.63 1.63 1.65 1.70 1.66 1.64 1.63 1.57 1.56 1.56 1.60 1.63 1.63 1.61 1.59 1.55 1.49 1.44 1.44 1.46 1.51 1.61 1.73 1.71 1.60 1.52 1.50 1.50 1.53 1.54 1.60 1.60 1.54
1.50 1.50 1.49 1.46 1.44 1.51 1.57 1.58 1.61 1.63 1.59 1.55 1.54 1.56 1.53 1.57 1.57 1.54 1.51 1.45 1.45 1.46 1.50 1.52 1.52 1.55 1.58 1.66 1.74 1.72 1.59 1.59 1.62 1.56 1.39 1.35 1.29 1.20